Flag for U.S.A. Weather past 2 weeks in Aliso Viejo, California, U.S.A.

78 °F

Passing clouds.

Feels Like: 80 °F
Forecast: 72 / 85 °F
Wind: 5 mph from Southeast

Location: John Wayne Airport-Orange County Airport

Current Time: Oct 13, 2015 at 7:08:03 AM

Latest Report: Oct 13, 2015 at 5:53 AM

Visibility: 10 mi

Pressure: 30.00 "Hg

Humidity: 54%

Dew point: 60 °F

Location of Aliso ViejoLocation

Historic Weather in Aliso Viejo — Graph


Aliso Viejo temperature yesterday

Maximum temperature yesterday: 91 °F (at 4:53 PM)
Minimum temperature yesterday: 71 °F (at 5:53 AM)
Average temperature yesterday: 81 °F

Past Weeks' High & Low Weather Summary

High103 °F (Oct 9, 1:53 PM)93% (Oct 4, 11:53 PM)30.10 "Hg (Oct 4, 11:53 PM)
Low61 °F (Oct 5, 2:53 AM)15% (Oct 9, 1:53 PM)29.55 "Hg (Oct 3, 6:53 PM)
Average75 °F66%29.87 "Hg
* Reported Sep 28 5:53 AM — Oct 13 5:53 AM, Aliso Viejo, Weather by CustomWeather, © 2015

Note: Actual official high and low records may vary slightly from our data, if they occured in-between our weather recording intervals... More about our weather records


Aliso Viejo weather history for previous 24 hours

Time TempWeatherWind HumidityBarometerVisibility
5:53 AM
Tue, Oct 13
78 °FPassing clouds.5 mph54%30.00 "Hg10 mi
4:53 AM80 °FClear.3 mph49%29.98 "Hg10 mi
3:53 AM80 °FClear.3 mph49%29.98 "Hg10 mi
2:53 AM80 °FClear.No wind54%29.98 "Hg10 mi
1:53 AM79 °FClear.No wind54%29.97 "Hg10 mi
12:53 AM79 °FClear.No wind58%29.96 "Hg10 mi
11:53 PM
Mon, Oct 12
79 °FClear.No wind56%29.94 "Hg10 mi
10:53 PM78 °FClear.7 mph66%29.92 "Hg10 mi
9:53 PM80 °FClear.No wind60%29.90 "Hg10 mi
8:53 PM80 °FPassing clouds.No wind58%29.89 "Hg10 mi
7:53 PM82 °FPartly cloudy.No wind55%29.87 "Hg10 mi
6:53 PM89 °FBroken clouds.No wind34%29.86 "Hg10 mi
5:53 PM91 °FBroken clouds.No wind31%29.85 "Hg10 mi
4:53 PM91 °FBroken clouds.No wind31%29.86 "Hg10 mi
3:53 PM90 °FCloudy.No wind31%29.88 "Hg10 mi
2:53 PM90 °FBroken clouds.No wind31%29.89 "Hg10 mi
1:53 PM89 °FScattered clouds.5 mph32%29.90 "Hg10 mi
12:53 PM88 °FScattered clouds.No wind34%29.93 "Hg10 mi
11:53 AM86 °FScattered clouds.7 mph39%29.94 "Hg10 mi
10:53 AM83 °FScattered clouds.8 mph46%29.95 "Hg10 mi
9:53 AM82 °FScattered clouds.9 mph48%29.95 "Hg10 mi
8:53 AM79 °FScattered clouds.No wind52%29.93 "Hg10 mi
7:53 AM75 °FScattered clouds.No wind62%29.91 "Hg10 mi
Weather by CustomWeather, © 2015

See weather overviewHow to use our weather pages